Park Rapids, MN

6:07 PM CDT on September 25, 2017 (GMT -0500)
Park Rapids Municipal

Weather History for KPKD - February, 2013

Change the Weather History Date:

Saturday, February 2, 2013

  Actual Average Record
Temperature  
Mean Temperature -8 °F -  
Max Temperature 5 °F 17 °F 49 °F (1991)
Min Temperature -22 °F -4 °F -46 °F (1996)
Degree Days  
Heating Degree Days 74    
Moisture  
Dew Point -8 °F    
Average Humidity 79    
Maximum Humidity 87    
Minimum Humidity 66    
Precipitation  
Precipitation 0.00 in - - ()
Sea Level Pressure  
Sea Level Pressure 30.09 in    
Wind  
Wind Speed 3 mph (SW)    
Max Wind Speed 13 mph    
Max Gust Speed -    
Visibility 7 miles    
Events Snow    
Averages and records for this station are not official NWS values.
T = Trace of Precipitation, MM = Missing Value Source: NWS Daily Summary

Daily Weather History Graph

Daily Weather History Graph

Search for Another Location

Airport or City:

Trip Planner

Search our weather history database for the weather conditions in past years. The results will help you decide how hot, cold, wet, or windy it might be!

Date:

Astronomy

Feb. 02, 2013 Rise Set
Actual Time 7:43 AM CST 5:25 PM CST
Civil Twilight 7:10 AM CST 5:57 PM CST
Nautical Twilight 6:34 AM CST 6:34 PM CST
Astronomical Twilight 5:59 AM CST 7:09 PM CST
Moon 12:00 AM CST (2/2) 10:24 AM CST (2/2)
Length of Visible Light 10h 46m
Length of Day
9h 42m
Waning Gibbous, 59% of the Moon is Illuminated
Feb 2
Waning Gibbous
Feb 3
Last Quarter
Feb 10
New
Feb 17
First Quarter
Feb 25
Full

Hourly Weather History & Observations

Time (CST) Temp. Windchill Dew Point Humidity Pressure Visibility Wind Dir Wind Speed Gust Speed Precip Events Conditions
12:53 AM -2.9 °F -11.2 °F -8.0 °F 79% 30.16 in 10.0 mi NW 3.5 mph - N/A   Overcast
1:53 AM -5.1 °F - -9.0 °F 83% 30.18 in 10.0 mi Calm Calm - N/A   Overcast
2:53 AM -9.9 °F - -14.1 °F 82% 30.20 in 10.0 mi Calm Calm - N/A   Scattered Clouds
3:53 AM -17.0 °F - -22.0 °F 78% 30.22 in 10.0 mi Calm Calm - N/A   Clear
4:53 AM -16.1 °F -26.2 °F -20.9 °F 79% 30.24 in 10.0 mi NW 3.5 mph - N/A   Clear
5:53 AM -18.9 °F - -23.1 °F 81% 30.24 in 10.0 mi Calm Calm - N/A   Clear
6:53 AM -22.0 °F - -26.0 °F 82% 30.23 in 10.0 mi Calm Calm - N/A   Clear
7:53 AM -20.9 °F - -26.0 °F 77% 30.23 in 10.0 mi Calm Calm - N/A   Clear
8:53 AM -16.1 °F - -18.9 °F 87% 30.22 in 10.0 mi Calm Calm - N/A   Mostly Cloudy
9:53 AM -13.0 °F - -16.1 °F 86% 30.22 in 10.0 mi Calm Calm - N/A   Mostly Cloudy
10:53 AM -7.1 °F - -9.9 °F 87% 30.18 in 10.0 mi Calm Calm - N/A   Mostly Cloudy
11:53 AM -0.0 °F -11.6 °F -7.1 °F 72% 30.16 in 10.0 mi SSW 5.8 mph - N/A   Scattered Clouds
12:53 PM 1.9 °F -10.6 °F -6.0 °F 69% 30.10 in 10.0 mi South 6.9 mph - N/A   Clear
1:53 PM 3.9 °F -10.4 °F -5.1 °F 66% 30.09 in 10.0 mi SSW 9.2 mph - N/A   Scattered Clouds
2:48 PM 3.2 °F -10.3 °F -2.2 °F 78% 29.94 in 2.0 mi SSW 8.1 mph - 0.00 in Snow Light Snow
2:53 PM 3.9 °F -9.4 °F -2.9 °F 73% 30.07 in 1.2 mi South 8.1 mph - 0.00 in Snow Light Snow
3:53 PM 3.9 °F -8.2 °F -2.0 °F 76% 30.07 in 1.8 mi SSE 6.9 mph - 0.00 in Snow Light Snow
4:19 PM 3.2 °F -10.3 °F -0.4 °F 85% 29.92 in 0.8 mi South 8.1 mph - 0.00 in Snow Light Snow
4:32 PM 3.2 °F -9.1 °F -2.2 °F 78% 29.92 in 1.5 mi South 6.9 mph - 0.00 in Snow Light Snow
4:44 PM 3.2 °F -9.1 °F -2.2 °F 78% 29.92 in 2.5 mi South 6.9 mph - 0.00 in Snow Light Snow
4:53 PM 3.0 °F -8.0 °F -2.0 °F 80% 30.06 in 4.0 mi South 5.8 mph - 0.00 in Snow Light Snow
5:53 PM 3.0 °F -8.0 °F -2.0 °F 80% 30.05 in 10.0 mi South 5.8 mph - 0.00 in   Overcast
6:53 PM 3.0 °F -4.4 °F -2.0 °F 80% 30.06 in 4.0 mi South 3.5 mph - 0.00 in Snow Light Snow
7:53 PM 3.0 °F -4.4 °F -0.9 °F 84% 30.06 in 5.0 mi SSW 3.5 mph - 0.00 in Snow Light Snow
8:23 PM 3.2 °F - -0.4 °F 85% 29.93 in 6.0 mi Calm Calm - 0.00 in Snow Light Snow
8:53 PM 3.9 °F -3.4 °F -0.9 °F 80% 30.06 in 6.0 mi West 3.5 mph - 0.00 in Snow Light Snow
9:04 PM 3.2 °F -4.2 °F -0.4 °F 85% 29.92 in 7.0 mi West 3.5 mph - 0.00 in Snow Light Snow
9:53 PM 5.0 °F -10.8 °F -0.9 °F 76% 30.06 in 10.0 mi WNW 11.5 mph - 0.00 in   Overcast
10:53 PM 5.0 °F -11.6 °F -0.9 °F 76% 30.05 in 10.0 mi NW 12.7 mph - N/A   Overcast
11:53 PM 3.9 °F -11.3 °F -2.0 °F 76% 30.06 in 10.0 mi WNW 10.4 mph - N/A   Overcast